Wind_Speed
1 2 5 5 4 6 7 3 4 5 4 6 4 1 1 3 3 2 1 2 1 4 7 8 11 14 14 13 17 20 17 17 19 20 24 31 35 36 37 38 38 38 37 34 31 29 28 27 26 25 26 26 27 28 30 31 32 33 33 32 31 30 30 31 31 30 30 29 30 29 28 29 28 27 30 33 34 33 30 28 28 29 29 29 27 24
2 5 6 3 2 3 4 5 7 5 4 4 3 1 2 4 3 1 2 1 2 3 5 3 9 15 14 13 17 18 15 17 20 19 23 28 32 37 39 41 41 40 38 36 35 34 33 32 30 29 29 29 30 30 30 31 32 33 33 33 33 32 31 31 32 32 31 29 29 29 28 28 28 28 30 32 35 35 31 30 30 30 31 30 29 27
3 6 3 4 6 7 6 4 4 4 3 2 2 1 2 3 2 1 2 2 1 3 4 3 7 14 15 14 18 20 19 22 27 25 27 26 27 34 40 41 40 40 39 37 37 37 36 35 33 31 31 30 31 31 32 32 32 33 34 33 33 32 32 32 32 33 31 29 29 28 28 27 26 28 29 29 31 33 30 29 29 29 32 32 29 27
4 4 1 6 8 8 6 3 4 4 2 2 2 3 2 0 1 1 2 2 2 2 4 5 7 12 15 15 16 19 20 23 28 29 32 33 34 41 45 42 40 40 41 40 38 38 37 36 35 34 33 32 32 33 34 34 33 34 33 33 33 32 32 32 33 32 31 30 29 29 28 26 25 26 26 26 27 29 29 28 28 29 32 32 28 26
3 1 3 6 5 5 6 5 6 5 3 3 4 6 4 2 2 2 2 1 2 2 2 6 8 8 9 10 11 9 8 14 20 20 25 31 34 39 40 39 37 38 39 37 35 35 34 33 31 30 30 31 32 33 33 33 33 34 34 34 34 33 33 33 33 32 32 31 30 30 29 27 27 26 28 29 29 30 31 31 31 31 30 28 27 26
2 4 7 7 3 3 5 5 6 6 4 3 5 8 8 3 1 1 2 3 3 2 0 3 6 5 2 8 11 6 4 10 11 10 19 27 29 30 33 36 36 35 36 35 34 33 32 30 27 25 25 25 27 29 31 32 32 34 34 35 35 35 34 33 32 32 32 32 32 32 32 31 30 30 32 34 33 32 34 35 34 31 28 27 27 26
1 4 5 6 6 5 3 4 5 6 4 3 2 5 8 2 1 2 1 2 3 2 1 0 5 6 5 12 15 8 10 15 9 9 18 26 28 30 33 36 35 33 32 32 31 30 30 28 26 25 22 21 22 24 28 30 31 33 34 35 35 35 35 34 33 32 33 34 33 33 33 32 32 33 34 35 34 33 35 37 35 32 29 28 28 27
3 5 3 5 7 6 5 4 5 8 6 1 1 1 4 5 4 3 2 3 3 3 1 3 3 6 8 11 10 5 10 15 12 11 16 22 28 31 31 30 27 24 22 21 21 20 21 22 21 21 20 19 19 21 24 27 29 31 33 34 35 36 36 35 34 33 34 35 35 34 34 33 33 34 33 33 33 33 35 36 35 33 32 31 31 30
2 6 7 7 6 5 5 0 4 11 5 1 1 1 3 3 2 2 1 2 1 4 3 4 4 6 8 6 1 2 6 10 12 13 13 15 19 21 22 20 16 13 12 12 13 12 13 15 16 16 17 18 19 20 22 24 25 28 30 32 34 35 36 36 34 33 34 34 34 34 34 34 34 34 33 31 31 33 35 36 35 34 34 34 34 32
2 2 5 7 5 4 3 5 1 7 3 3 5 5 7 5 5 3 0 0 1 4 5 6 7 6 8 6 5 1 3 8 11 9 9 9 11 12 13 11 8 7 8 8 8 7 8 10 11 12 14 15 17 19 20 22 24 26 28 30 32 34 35 35 34 33 34 34 35 35 35 35 36 35 33 32 31 33 36 36 35 34 35 36 34 30
2 2 2 4 3 3 6 6 4 1 5 9 7 5 7 4 3 3 1 2 2 6 2 7 10 6 7 3 7 4 2 5 7 5 5 6 9 11 7 4 3 3 4 5 5 6 5 6 7 6 7 9 11 14 17 21 23 26 28 30 31 32 34 34 33 33 34 34 35 37 36 36 36 36 34 33 33 34 37 38 36 34 35 36 33 29
1 2 2 3 4 7 8 6 6 4 4 5 3 3 4 2 1 1 1 1 4 6 1 2 2 5 8 4 3 1 4 5 6 5 5 4 8 11 7 3 3 2 2 5 7 7 7 7 6 5 5 6 9 11 14 18 21 24 27 29 31 31 33 34 31 31 33 34 36 36 36 36 37 37 36 34 34 35 36 37 36 34 35 36 32 29
2 3 2 3 6 8 6 6 6 3 2 2 3 6 4 2 2 3 2 2 5 4 2 3 2 4 11 7 4 9 11 11 8 8 10 9 13 19 15 11 8 5 6 6 7 7 7 7 7 7 8 10 11 12 14 16 19 22 25 27 30 30 32 33 30 30 32 34 36 36 36 37 37 36 35 34 36 36 34 34 35 35 37 37 33 32
3 1 3 4 4 8 9 7 5 4 5 7 7 7 6 4 4 5 3 1 4 2 2 3 1 5 10 7 8 14 16 14 9 12 19 20 23 28 24 21 19 15 13 12 11 10 9 10 10 12 13 13 12 12 13 16 17 20 22 25 28 28 30 31 29 29 32 33 35 36 36 37 37 37 37 36 37 37 33 32 34 36 37 36 34 34
6 4 7 8 5 12 14 8 6 6 7 8 4 3 5 5 5 5 3 2 3 1 2 1 2 6 5 2 3 8 11 16 15 15 20 25 30 33 32 32 31 27 24 22 21 19 16 16 15 16 14 12 11 11 13 15 16 18 20 22 24 26 28 30 29 29 31 33 35 36 37 38 38 39 38 36 36 36 34 31 33 35 36 34 33 33
6 5 4 3 3 14 13 4 5 6 5 4 1 1 5 4 3 1 1 1 1 1 2 3 4 6 4 4 7 8 9 12 15 15 16 23 30 29 30 35 35 32 30 27 25 23 19 17 15 12 9 8 10 11 12 14 14 16 18 19 22 24 27 29 29 28 30 31 33 35 38 39 39 38 37 36 37 37 34 33 33 33 33 32 31 30
4 2 2 2 1 7 4 1 4 3 3 4 3 5 3 1 1 2 0 2 2 4 4 4 6 8 6 8 9 10 12 10 10 11 13 23 28 23 25 33 32 29 27 24 22 19 15 13 10 8 8 8 8 9 10 11 12 14 16 18 20 23 26 28 28 28 29 30 32 35 37 38 39 39 38 38 37 35 33 34 33 31 31 31 29 28
3 1 1 1 2 2 2 3 3 2 2 4 5 5 2 2 1 2 3 1 3 7 4 4 9 9 6 6 1 3 8 10 11 11 14 21 23 21 28 33 27 22 20 17 13 12 11 11 11 9 7 6 6 6 8 9 11 13 15 17 19 21 24 26 26 27 28 30 31 33 35 37 37 37 37 37 36 35 34 35 34 31 32 31 28 27
3 3 1 1 0 2 2 2 3 1 2 1 1 2 2 2 3 3 4 4 4 6 4 4 7 7 8 8 3 3 7 9 11 11 10 13 14 19 31 32 23 17 16 14 12 11 13 13 10 7 5 3 3 4 6 8 10 12 14 16 18 20 22 23 25 26 27 29 30 31 33 35 35 35 35 34 34 35 35 35 34 33 33 32 29 27
3 5 3 1 1 1 3 5 7 5 3 2 0 2 0 2 3 3 3 2 4 5 4 4 4 6 8 6 5 10 11 10 11 8 5 8 15 21 25 23 20 17 15 16 14 13 15 14 10 7 5 4 3 3 4 7 9 11 12 15 17 19 21 23 25 26 26 28 29 30 31 32 33 33 33 33 33 34 35 35 35 34 33 32 28 25
3 5 4 1 1 2 5 7 9 9 8 5 6 6 4 2 0 2 2 1 2 4 3 4 6 8 6 4 6 10 9 7 8 6 5 11 18 18 14 14 16 14 10 12 15 17 18 15 11 9 8 7 5 3 4 5 7 9 11 14 16 18 20 23 25 25 25 27 28 28 29 30 30 32 33 35 34 34 34 35 34 33 32 30 27 24
5 4 4 4 3 6 5 1 2 6 8 7 8 10 10 8 5 4 5 2 0 3 2 2 6 10 4 3 5 8 5 4 6 5 7 14 19 16 12 12 12 9 9 13 17 20 20 16 12 11 10 8 5 4 4 5 7 8 10 12 15 17 19 22 24 24 24 26 27 27 28 28 28 30 32 34 34 33 34 34 33 32 30 28 26 25
4 2 4 5 4 4 1 3 2 3 1 2 4 5 7 7 8 8 6 3 2 2 1 1 5 10 4 2 3 3 1 3 4 5 9 17 21 20 17 13 9 9 13 16 19 21 21 18 14 12 10 7 6 6 6 7 8 9 10 12 14 16 18 21 23 24 24 25 26 26 27 27 27 29 30 32 32 33 34 34 33 31 29 26 26 26
3 1 4 5 2 2 2 2 1 2 1 3 5 3 3 6 8 6 2 2 3 4 4 3 6 9 4 1 1 2 3 7 9 10 14 19 22 22 17 12 9 10 14 17 20 23 21 18 15 13 11 9 9 8 9 10 11 11 11 12 13 16 18 20 21 23 23 24 25 25 26 27 27 28 30 31 31 32 32 33 33 29 26 25 27 29
6 2 5 6 3 3 3 3 3 2 3 5 4 5 7 8 6 2 1 1 3 7 9 8 8 9 3 2 1 2 3 7 10 13 17 18 18 17 12 10 10 11 14 18 21 22 20 18 16 15 14 13 12 10 11 12 13 13 13 13 14 15 17 19 21 21 22 23 24 25 26 27 28 29 30 30 31 31 31 32 31 28 24 25 27 29
7 2 5 7 7 7 7 5 4 4 4 3 4 7 11 12 11 6 3 5 7 10 11 9 10 12 5 4 3 4 4 6 9 12 16 16 16 15 12 11 13 13 15 17 18 17 18 17 16 16 17 17 14 10 11 14 16 16 15 14 15 15 17 20 21 21 22 22 24 25 27 28 29 29 30 30 31 31 30 31 31 27 24 25 27 28
3 1 5 8 10 10 9 6 1 5 7 7 9 9 10 12 13 9 6 8 10 10 10 10 12 17 16 8 6 5 4 5 7 8 12 16 15 13 13 12 13 14 14 15 15 16 17 17 17 18 20 20 15 10 12 15 17 19 18 16 16 17 18 19 21 22 22 23 24 26 27 29 29 29 29 29 30 30 30 31 31 28 26 27 28 29
3 4 10 12 14 16 17 11 3 6 9 11 12 12 11 11 13 12 11 13 13 10 11 13 14 17 22 18 12 9 6 5 5 7 14 17 14 12 14 15 11 12 15 17 18 18 18 19 20 21 22 20 14 11 14 18 19 20 21 20 19 19 19 19 21 23 24 24 24 26 27 28 29 29 30 29 29 30 30 31 31 29 27 28 29 31
3 7 11 13 16 19 20 13 5 6 8 8 11 13 14 14 16 16 17 19 17 12 12 16 17 18 21 20 14 11 10 11 12 15 18 18 17 15 15 14 13 14 21 24 23 22 21 22 24 24 23 19 14 15 19 22 21 22 23 23 21 21 21 20 21 23 25 25 25 26 26 27 28 29 30 30 30 30 31 31 32 30 28 27 28 30
3 7 10 12 13 17 20 15 8 9 9 7 8 11 12 16 18 20 21 22 21 17 15 18 22 22 21 17 13 10 12 16 21 23 23 22 23 22 18 16 18 22 26 26 25 26 27 27 27 26 23 20 20 24 28 27 25 24 24 24 23 23 22 22 21 23 25 26 26 25 25 26 27 28 31 32 32 31 31 31 31 31 30 28 28 30
4 6 7 7 7 13 19 19 14 13 13 12 9 7 10 15 18 21 20 17 17 17 18 19 21 21 18 13 14 17 15 15 18 20 24 28 30 29 26 25 27 30 33 33 32 33 34 35 35 35 32 29 28 31 34 33 30 27 26 25 25 24 24 23 22 23 25 27 27 26 25 26 28 28 30 33 32 31 32 31 30 29 29 29 29 31
6 6 3 5 6 11 16 20 16 10 8 10 10 10 13 15 15 15 14 13 14 16 16 15 15 17 12 5 11 18 15 13 14 16 22 30 33 33 34 34 34 36 39 40 39 40 41 44 46 46 44 41 38 36 36 35 33 30 28 28 27 25 24 24 23 24 25 27 28 27 27 27 28 28 28 31 32 31 31 31 29 27 27 29 30 30
7 6 4 6 7 10 16 16 8 5 4 7 13 17 20 19 14 10 11 15 18 16 12 11 12 16 14 8 11 13 8 10 14 18 25 30 33 36 38 39 39 39 41 42 44 46 47 49 49 47 46 45 42 39 37 36 34 31 30 29 28 26 25 24 24 24 26 27 29 28 28 27 28 28 27 28 29 30 31 31 29 27 27 30 30 29
6 7 6 5 5 9 14 7 5 6 9 10 14 18 20 17 16 15 17 20 20 14 11 11 12 15 17 16 16 11 8 13 22 28 31 31 32 35 37 39 40 41 43 46 47 48 47 47 46 44 43 43 40 37 37 36 34 32 31 32 31 29 27 25 25 25 26 28 29 29 28 28 28 29 27 25 26 28 30 30 28 27 28 30 29 27
5 7 5 4 3 6 7 4 5 10 10 9 11 14 14 14 18 21 23 23 21 15 13 16 19 20 22 23 23 20 21 25 29 33 34 33 33 36 37 39 41 42 45 47 46 45 45 43 43 42 40 39 37 36 37 36 34 34 34 34 33 30 28 26 25 25 26 28 28 28 28 28 28 28 27 25 25 26 27 28 26 27 28 29 27 25
6 6 4 3 4 3 4 7 8 6 2 4 9 8 7 11 17 19 20 21 21 17 16 18 22 25 26 28 31 32 33 32 30 34 38 35 35 40 42 45 47 44 44 44 43 43 43 41 40 38 36 36 36 36 37 36 35 36 35 34 32 29 27 25 25 26 26 27 27 27 28 28 28 28 27 26 25 24 25 25 25 26 26 26 24 23
11 8 4 4 5 5 6 8 7 6 5 6 9 9 8 10 13 12 12 16 16 17 19 20 23 26 25 29 36 34 28 22 19 31 44 41 39 46 50 50 50 47 45 45 44 44 43 39 37 37 36 37 37 36 35 34 34 33 32 31 30 28 26 25 25 25 26 26 25 25 25 26 26 26 26 25 25 24 23 23 24 25 25 24 23 21
13 11 8 6 6 6 7 7 6 8 8 9 15 16 12 14 13 10 10 12 11 17 23 21 22 26 23 26 31 20 11 10 8 22 44 43 38 44 47 45 47 47 45 46 45 44 43 39 37 36 35 34 32 31 30 29 29 29 29 29 27 26 24 24 24 24 24 23 22 22 22 22 23 24 24 24 24 24 23 22 23 25 25 24 22 21
14 11 9 8 5 6 7 7 7 8 5 8 16 13 10 17 14 8 7 10 13 22 25 18 17 22 22 25 21 7 4 7 7 21 42 38 28 32 34 33 36 35 34 36 37 38 38 36 34 32 29 27 25 24 24 24 24 25 26 25 24 24 23 23 22 22 20 19 18 19 19 20 21 21 21 22 22 22 22 22 22 23 23 23 21 19
13 9 11 11 8 8 10 7 6 7 4 8 12 7 11 20 17 9 7 11 14 22 22 17 18 22 25 26 16 7 8 12 13 27 41 32 23 24 23 22 24 24 23 25 26 27 28 27 25 23 21 21 21 20 20 21 21 22 22 21 22 21 20 19 18 18 17 17 17 17 17 17 18 18 18 19 19 20 21 21 21 20 19 18 16 15
9 7 10 11 8 10 12 9 6 6 4 7 11 9 17 19 13 9 10 9 9 15 16 19 25 27 30 29 17 12 21 30 32 40 42 32 26 23 19 19 20 19 20 20 20 22 22 20 20 19 19 20 19 18 18 19 19 20 19 19 19 18 17 17 17 17 17 17 17 17 16 16 15 15 16 16 17 18 19 19 19 17 14 12 11 11
6 5 7 8 8 9 10 9 9 7 5 10 14 11 17 13 7 10 12 9 10 15 16 19 25 28 31 32 26 26 34 39 40 43 43 39 34 27 22 22 22 21 22 20 19 19 19 19 20 20 20 20 18 17 17 17 17 17 17 17 17 17 17 17 18 18 18 18 18 17 17 16 16 15 15 15 16 16 16 16 15 13 12 11 11 12
4 4 5 7 7 7 8 10 10 7 4 9 9 6 9 10 8 6 6 8 11 14 15 15 17 22 26 28 30 34 36 35 36 39 41 40 36 31 28 25 23 23 23 20 19 19 19 20 21 20 19 18 17 16 16 15 15 16 16 17 17 17 17 18 18 18 19 19 19 18 18 17 16 16 16 16 15 15 14 14 14 14 14 14 14 14
4 5 5 5 6 6 8 8 5 1 3 2 3 2 6 10 9 9 7 5 7 10 12 12 14 16 20 24 28 30 32 34 36 37 36 35 34 33 30 25 22 22 21 21 22 22 21 20 19 18 17 16 15 15 14 13 14 16 17 17 18 18 19 19 20 20 20 20 20 19 19 18 18 17 17 17 17 16 16 16 16 17 17 16 16 15
7 5 3 3 5 6 4 4 5 6 10 14 13 14 15 16 18 20 18 15 17 20 19 18 19 17 17 22 27 27 28 31 33 33 33 34 33 31 28 24 22 22 22 23 24 23 21 18 17 16 16 15 15 15 15 15 16 17 18 19 20 20 20 21 21 21 21 21 21 21 21 20 20 19 19 18 18 18 19 19 19 18 18 17 16 15
6 5 1 0 3 4 4 7 10 12 18 23 24 25 26 26 26 27 25 23 27 31 29 27 26 22 17 18 22 24 27 28 28 29 30 31 31 29 27 25 24 23 23 23 22 21 20 18 16 16 17 17 17 18 18 19 19 19 19 20 21 21 21 21 21 21 22 22 22 22 22 22 22 21 21 20 19 18 18 18 18 17 16 16 15 14
3 5 4 3 3 4 4 6 8 11 20 27 25 25 27 29 30 31 32 31 32 35 34 32 32 30 27 25 24 25 26 26 27 27 28 28 28 27 26 25 23 22 21 21 20 20 19 18 18 18 19 19 20 21 21 21 21 20 19 20 20 20 20 20 20 21 22 22 22 22 22 22 23 23 22 21 20 18 17 16 16 15 14 14 14 14
4 6 5 5 6 7 7 7 9 14 20 23 22 23 27 31 32 33 34 34 35 36 37 36 34 32 31 31 29 28 27 27 27 28 28 27 27 25 25 24 22 21 20 19 20 20 19 19 19 20 21 21 22 22 22 22 21 20 19 19 19 19 20 20 20 21 21 21 22 22 22 22 21 22 22 21 20 19 18 17 16 15 15 14 14 14
8 8 6 5 5 7 7 7 9 12 13 16 21 26 29 30 31 32 32 32 33 35 36 37 35 33 32 31 29 27 28 28 28 27 27 26 25 24 24 23 22 21 21 20 20 20 20 20 20 21 22 22 22 23 22 22 21 20 19 19 20 20 21 21 21 21 21 22 22 22 22 21 20 20 20 21 20 19 18 18 18 17 17 17 16 16
7 6 6 5 6 6 6 7 9 7 6 12 20 24 25 27 27 29 31 32 32 33 34 35 36 36 35 33 30 28 28 28 28 27 25 23 22 22 22 22 22 22 21 20 20 20 20 20 20 21 22 22 22 23 22 21 21 21 20 20 20 20 21 21 22 22 22 22 22 22 22 22 21 20 20 20 21 21 21 22 21 20 20 20 19 18
11 9 8 7 7 8 12 18 19 12 9 18 27 29 29 30 29 30 34 35 34 34 33 33 35 36 35 33 31 29 28 28 26 23 20 18 18 19 20 20 20 21 21 20 20 20 20 20 21 21 21 22 22 22 22 21 21 21 21 20 20 20 20 20 21 22 23 22 22 22 22 22 22 21 21 21 21 22 23 23 23 23 22 20 19 17
Wind_Direction
139 187 201 209 209 191 186 161 100 85 89 106 118 153 182 253 256 178 113 57 47 267 256 246 262 269 268 267 268 270 270 265 261 261 264 267 269 268 267 266 264 264 264 265 265 263 259 255 254 252 249 244 240 237 236 236 237 239 240 242 244 246 246 244 241 241 242 243 243 243 239 234 235 227 213 211 216 218 222 226 227 225 225 224 223 226
166 220 226 212 70 112 134 112 108 107 91 109 150 194 217 244 249 121 77 56 106 267 266 269 283 276 270 268 266 267 266 262 257 252 257 263 266 268 268 267 266 265 265 266 266 264 261 257 254 252 249 246 243 240 238 238 238 239 239 241 244 246 246 245 243 241 242 243 244 244 241 237 233 227 222 222 222 223 226 227 227 230 228 224 220 219
205 231 223 114 98 93 100 122 131 117 109 126 149 213 244 244 250 125 73 41 126 241 276 333 300 283 279 273 264 258 252 258 260 257 259 262 264 266 267 268 268 269 269 267 265 264 262 261 258 254 250 248 246 244 242 241 240 240 240 241 244 245 245 245 243 240 241 243 243 242 241 238 231 227 228 229 225 223 225 228 228 226 220 216 215 213
201 241 124 124 139 122 102 136 139 122 156 185 181 209 236 212 264 238 85 64 150 234 302 325 300 284 280 273 264 255 245 254 262 261 263 264 263 264 265 267 267 269 270 269 268 267 265 264 262 259 256 253 250 246 243 242 242 242 243 243 243 244 244 243 243 240 240 241 242 240 236 232 228 227 227 224 222 221 224 225 216 209 207 211 217 220
200 32 100 133 148 138 127 151 168 179 201 213 215 222 236 212 218 258 22 3 213 194 302 305 289 272 265 266 269 263 241 252 260 261 265 263 260 262 264 266 266 266 268 269 270 270 270 268 266 265 262 257 252 248 246 245 245 245 245 244 243 243 242 243 243 241 239 239 239 237 230 223 221 222 220 219 221 220 218 214 207 206 212 217 224 228
223 110 137 133 105 127 142 167 189 198 205 221 222 227 240 244 146 209 13 336 266 224 136 314 287 264 271 273 265 260 257 260 247 241 260 263 261 262 265 266 267 268 267 267 267 267 268 268 268 267 263 258 252 247 246 245 244 244 245 245 244 244 243 243 243 242 239 238 238 236 231 226 223 220 217 220 223 220 212 209 210 216 223 228 230 230
174 128 140 141 141 140 156 197 194 193 210 225 216 226 234 228 122 205 263 289 276 288 141 273 278 279 297 278 268 259 264 268 250 232 254 260 262 262 264 268 271 273 272 270 268 265 264 264 263 262 259 257 252 247 245 243 243 243 243 244 244 244 244 243 242 241 238 236 236 236 234 231 228 225 223 224 225 221 214 213 217 226 233 235 233 232
138 152 149 140 146 150 175 206 187 187 200 190 50 215 193 183 201 210 205 239 282 332 252 182 233 271 273 270 280 277 259 268 267 256 253 255 260 264 267 271 274 276 275 270 266 261 258 257 255 254 253 251 249 246 245 243 244 244 243 243 243 243 243 243 241 240 238 236 235 234 232 230 227 226 226 226 224 219 217 218 223 233 239 238 234 233
129 177 181 161 158 177 181 87 166 180 192 6 38 74 125 142 159 141 166 228 322 324 263 172 173 263 261 234 289 342 256 267 264 256 254 252 257 264 269 276 279 279 272 264 260 255 251 248 247 247 244 243 243 242 242 242 243 245 245 245 244 244 244 243 242 240 239 237 234 233 230 229 226 225 225 225 223 217 216 219 225 234 239 235 231 229
44 193 188 171 178 189 138 33 179 190 175 132 137 95 87 78 70 86 291 156 76 283 256 162 169 262 282 213 162 132 250 258 258 252 259 266 272 279 284 292 297 288 270 258 248 239 238 239 238 239 238 237 238 238 238 239 239 240 242 244 244 244 244 245 242 240 239 236 233 231 229 228 226 226 224 221 220 218 217 221 227 234 234 229 226 227
49 86 158 195 196 139 109 63 18 32 120 143 146 100 92 82 64 76 29 48 267 267 223 153 178 232 291 224 162 168 223 242 253 252 253 274 293 300 311 330 328 310 266 227 200 195 201 209 212 221 235 239 240 241 240 239 236 235 237 239 242 243 244 245 242 239 238 236 233 231 229 227 226 227 226 221 218 218 221 224 227 229 226 221 223 229
89 150 153 190 155 121 112 85 49 57 127 152 153 132 127 122 118 131 99 117 244 252 101 90 199 228 253 238 137 300 296 260 251 261 270 288 295 295 303 299 301 323 237 197 183 186 187 193 197 208 241 259 257 252 248 247 242 238 237 238 240 241 243 245 242 239 238 236 234 231 228 226 226 226 226 222 220 222 225 225 224 225 223 222 227 235
198 200 118 122 154 159 147 104 78 76 198 221 165 162 192 209 191 233 207 169 238 240 51 353 325 238 248 263 299 286 274 255 233 239 262 278 282 281 279 268 266 263 245 219 199 195 196 210 225 240 262 275 270 258 253 253 250 245 242 240 241 241 242 244 242 238 238 237 235 232 227 226 226 226 225 223 225 228 229 226 225 227 227 228 233 241
205 227 140 148 172 195 190 158 151 176 193 198 182 175 196 194 206 234 196 188 269 244 43 339 233 241 267 281 262 257 263 269 259 247 256 265 273 276 276 271 267 258 250 241 233 237 243 249 258 267 276 280 271 257 251 252 252 250 248 245 245 243 242 245 243 239 238 237 235 231 228 227 226 225 225 225 227 230 232 232 232 233 231 232 239 246
216 248 179 172 162 181 198 203 169 152 171 195 190 181 203 195 208 229 197 219 260 116 80 323 215 230 258 334 249 250 277 289 286 267 259 260 263 266 270 272 270 264 259 256 254 256 258 264 272 276 278 275 263 253 249 250 251 251 251 250 249 246 245 246 244 240 238 237 236 232 229 228 226 226 227 225 226 229 232 235 237 234 233 238 245 247
225 263 169 148 139 168 187 203 129 124 161 191 72 201 230 218 197 232 328 170 78 19 195 197 244 245 248 303 280 259 274 284 283 277 267 261 260 259 263 267 268 268 267 264 261 260 261 267 271 266 261 256 253 252 252 255 256 256 256 254 252 249 247 248 247 244 240 239 238 234 231 230 229 228 227 225 225 227 230 234 234 231 235 243 246 245
213 272 74 43 120 172 186 121 134 158 176 158 168 200 222 330 119 166 222 84 95 267 242 186 249 271 284 283 261 240 250 260 270 277 270 265 264 264 263 264 265 268 271 270 265 260 260 257 241 223 221 231 242 248 253 258 260 260 260 256 255 252 249 249 249 247 244 241 240 237 233 231 230 228 227 227 225 226 230 233 232 230 235 242 243 241
210 249 87 98 176 184 5 57 90 13 66 140 190 190 139 26 6 204 235 192 182 246 254 194 237 262 274 272 242 173 238 251 258 261 262 265 269 270 269 268 269 270 272 270 259 247 238 221 202 200 211 221 237 251 255 258 257 257 257 255 255 254 253 254 255 254 250 246 242 239 235 233 232 229 228 228 226 228 232 233 233 235 237 241 242 239
204 235 206 70 194 131 86 153 153 64 53 74 215 160 119 221 206 184 217 229 215 233 249 217 233 250 240 244 274 252 235 240 247 247 253 266 270 268 268 270 275 275 265 253 242 226 209 194 187 193 198 217 254 273 275 272 269 267 264 260 257 256 255 257 258 257 253 248 245 242 237 235 232 229 228 227 227 230 232 232 234 237 237 240 241 235
166 229 228 78 312 103 125 204 200 168 104 35 301 159 28 263 222 189 187 222 230 228 241 247 252 249 228 214 236 249 244 238 241 245 253 263 264 267 272 280 285 280 263 246 233 212 193 183 178 180 183 203 222 254 279 283 288 286 280 273 266 260 257 255 256 256 253 251 247 243 240 236 233 230 229 229 230 230 230 231 234 235 236 239 238 233
141 224 227 110 325 211 184 206 203 180 163 174 196 187 189 196 245 268 223 175 244 234 234 256 266 264 245 165 192 234 247 238 234 240 245 252 256 261 279 301 294 276 249 227 213 196 185 180 177 180 185 192 199 225 262 277 289 289 287 284 277 269 263 258 258 257 254 253 250 245 241 237 234 231 228 229 230 229 229 231 234 236 237 234 232 232
177 204 202 156 182 205 198 210 232 198 178 184 196 194 198 186 160 216 218 171 248 256 229 232 267 270 263 142 199 226 238 238 225 221 240 251 257 266 283 298 288 250 201 192 193 188 185 183 180 183 187 189 206 240 268 282 288 289 289 287 282 277 271 265 264 262 258 256 253 250 244 239 237 234 230 229 228 227 227 228 231 235 233 228 230 236
160 180 202 192 192 199 162 46 352 298 273 239 233 207 205 193 185 209 217 177 162 223 252 285 269 270 261 139 201 224 225 268 244 232 249 254 262 277 284 277 261 219 191 187 190 188 189 189 185 187 194 207 235 257 278 289 290 291 289 286 284 281 275 270 269 266 261 258 256 253 248 242 239 236 231 228 227 226 225 227 232 233 228 227 233 238
127 150 214 218 205 103 65 70 56 12 32 241 246 204 195 210 207 215 224 180 181 184 199 218 244 260 266 132 241 279 279 274 260 249 253 256 265 277 274 255 239 212 194 194 196 194 194 193 190 197 210 229 251 268 284 289 289 290 287 285 286 284 277 271 268 267 264 259 257 253 248 244 238 234 231 228 228 226 225 230 233 228 225 229 232 237
167 196 208 214 224 191 181 200 205 189 193 229 231 189 201 207 183 135 80 208 222 205 206 220 240 252 257 96 220 256 263 271 263 255 258 259 265 274 264 232 221 211 202 201 199 197 199 201 202 210 223 236 249 265 283 285 284 285 284 284 284 283 279 273 267 266 264 260 257 252 247 243 237 233 230 228 226 225 227 232 229 222 226 232 234 238
174 222 192 199 221 217 209 210 207 186 171 217 235 199 203 198 175 165 187 205 227 225 217 222 242 253 247 132 176 228 233 261 264 259 262 259 257 268 266 230 213 214 215 210 205 204 208 212 216 223 231 236 238 254 282 287 284 281 279 282 285 281 279 275 270 265 261 258 256 251 247 243 237 233 231 227 223 223 228 231 226 225 232 237 239 236
145 279 207 213 227 231 241 246 154 125 152 196 219 201 197 199 188 189 209 212 222 236 235 225 232 254 259 230 198 206 203 237 257 252 257 260 258 270 280 259 229 220 223 221 215 213 215 219 226 232 236 238 238 252 281 289 289 283 276 277 283 281 278 276 272 265 258 256 254 251 249 245 240 235 232 228 224 222 225 228 229 230 235 240 242 233
104 222 213 224 233 239 253 253 176 152 187 202 211 199 188 195 193 196 217 223 221 232 245 234 222 243 259 253 234 227 223 238 262 257 260 266 265 267 278 279 262 233 227 225 220 219 225 231 238 243 244 246 249 262 279 286 288 285 276 274 279 279 275 274 272 266 259 254 253 251 249 247 243 237 233 229 226 224 226 229 229 228 231 241 243 229
160 217 210 219 231 240 252 249 188 192 220 209 210 206 192 190 193 201 218 226 224 224 243 250 240 238 253 259 248 236 234 235 242 253 264 273 274 270 271 278 279 259 243 235 231 234 242 249 255 259 258 260 268 278 284 284 284 285 278 273 276 278 273 270 269 267 261 255 252 252 250 249 245 239 232 229 227 227 228 231 230 226 227 238 240 227
194 222 214 213 228 243 251 248 213 210 235 235 219 215 202 195 195 204 216 223 225 228 238 253 255 251 253 260 261 255 247 242 241 245 251 259 263 264 263 260 264 265 262 261 260 257 257 260 266 269 269 275 284 288 291 288 284 285 281 274 275 277 272 267 265 265 262 257 253 251 250 249 245 239 231 227 225 227 229 233 234 229 227 233 237 231
191 226 215 190 221 246 248 248 235 222 233 238 228 217 216 212 208 213 219 220 224 231 239 248 259 262 257 257 268 270 258 242 239 237 239 245 249 252 252 249 253 261 267 272 273 267 265 267 271 275 278 281 283 286 290 289 286 285 282 276 276 276 271 265 262 262 261 258 254 250 248 247 244 239 232 226 225 226 230 234 235 231 229 234 239 238
181 222 196 161 214 241 241 243 238 221 224 239 236 222 216 216 215 216 220 221 221 225 233 242 253 261 260 238 255 262 248 227 227 226 232 241 244 247 249 249 252 258 263 266 266 263 264 268 271 275 278 280 281 284 286 286 283 281 279 278 278 275 268 261 258 259 258 257 253 249 246 245 244 241 234 227 225 226 229 234 236 233 232 237 244 244
174 202 197 188 213 238 242 240 218 159 174 233 235 227 221 219 219 222 227 230 225 219 224 231 234 249 259 252 249 252 227 213 228 228 233 240 243 246 250 251 253 257 260 262 261 259 262 266 269 273 276 278 280 281 281 279 277 274 272 273 273 269 263 257 254 254 254 253 251 247 244 244 243 242 237 229 226 227 229 232 236 237 237 240 245 246
178 192 202 196 201 240 248 235 142 178 217 230 231 227 227 225 222 227 232 229 224 215 221 243 253 259 262 260 257 251 221 227 238 239 241 244 245 248 253 254 256 257 259 260 259 260 262 265 268 272 275 277 278 276 274 272 270 268 266 267 266 263 259 256 253 251 250 249 248 246 243 242 241 240 237 231 228 228 229 232 237 239 241 243 246 247
181 198 202 189 193 243 251 225 209 223 222 232 246 241 236 229 222 228 235 236 230 216 217 242 256 258 258 257 257 256 254 255 255 251 249 250 251 253 256 258 259 259 259 259 259 260 263 266 270 273 273 273 273 270 268 266 264 264 263 262 261 260 258 255 252 250 248 246 244 243 241 239 239 238 235 231 229 227 228 232 236 238 239 243 248 251
185 202 207 200 203 223 230 219 230 243 231 259 266 256 230 223 224 229 240 243 236 223 223 234 241 247 252 255 257 259 263 267 269 265 260 256 255 256 256 258 261 260 260 261 262 263 266 269 272 271 269 268 268 265 264 264 263 263 260 258 258 257 255 252 250 248 246 242 241 240 239 238 238 237 233 230 228 227 227 229 232 234 237 242 248 249
200 205 204 214 210 209 225 227 237 273 282 258 249 236 203 206 215 214 231 245 234 220 224 229 237 245 248 252 258 263 266 269 275 272 267 261 257 258 258 259 261 261 262 264 266 267 270 270 268 266 265 266 265 264 264 263 261 259 256 256 256 255 253 250 248 246 243 239 237 237 237 237 237 236 233 229 227 227 227 228 231 235 238 241 244 244
206 205 197 210 209 196 225 239 238 250 249 236 245 245 217 208 210 193 215 247 245 227 222 220 235 245 246 255 261 261 261 262 266 270 269 265 259 258 259 260 262 263 264 265 267 268 268 267 265 265 266 265 263 262 260 258 256 255 254 254 255 254 253 250 247 243 238 235 234 233 234 235 235 234 232 227 225 226 226 229 234 239 241 242 244 244
208 205 197 212 212 194 221 236 226 235 234 227 248 252 200 192 188 158 200 240 249 244 233 217 229 242 245 255 255 213 197 250 246 262 269 271 267 262 261 263 264 264 264 264 265 265 266 265 265 264 262 260 259 257 255 253 252 251 251 252 251 251 249 246 241 237 233 230 228 225 225 228 230 230 228 225 224 224 226 230 237 243 244 243 244 246
206 206 208 219 218 210 224 235 231 242 233 220 244 246 170 172 163 148 213 230 237 250 243 217 222 237 242 246 238 170 201 233 239 259 267 271 274 269 263 263 264 262 261 260 259 259 260 259 258 256 254 254 255 253 252 250 248 248 248 247 245 242 239 235 229 223 219 216 213 211 211 214 217 219 219 219 220 221 224 230 237 243 244 242 243 245
200 203 211 217 218 217 225 233 242 246 214 223 245 209 159 156 155 181 225 228 231 254 249 221 219 228 235 236 221 201 230 237 244 257 263 266 268 267 263 264 265 263 260 255 250 250 250 247 247 249 252 255 254 252 250 247 245 244 241 238 234 227 221 216 210 206 204 200 197 195 195 197 201 205 208 210 212 215 220 226 234 239 240 235 229 226
202 204 207 212 219 220 222 231 248 251 201 211 233 203 160 161 196 220 226 234 237 247 249 229 218 221 229 231 223 224 239 247 251 255 258 259 261 262 262 263 263 263 262 254 244 240 239 243 250 254 254 254 253 251 248 242 238 236 231 225 218 210 205 200 196 194 190 186 183 181 181 183 187 191 195 199 202 206 211 217 221 221 215 206 198 195
205 210 211 204 209 218 223 228 238 251 204 184 198 186 173 198 237 257 240 234 236 247 255 246 227 222 227 232 232 234 242 250 253 253 253 255 259 260 260 258 255 255 254 250 244 243 244 249 253 253 251 249 247 244 238 230 225 221 214 208 201 196 192 188 184 182 178 175 173 171 171 174 177 181 184 186 189 194 197 199 197 193 189 188 186 185
194 209 229 214 204 210 222 223 208 224 318 268 222 230 223 228 262 308 311 280 271 278 279 275 266 252 242 241 243 243 244 248 250 251 253 256 258 259 257 252 245 241 240 243 249 253 253 251 247 244 242 238 232 226 217 210 207 202 196 192 187 183 180 176 174 172 169 168 167 166 167 168 170 173 176 177 179 181 183 184 185 184 182 180 180 179
192 196 225 241 231 217 215 255 275 286 295 295 291 292 287 276 279 287 288 286 285 283 281 282 284 280 264 254 252 252 251 252 253 255 258 259 258 257 255 249 241 237 238 244 249 250 247 241 236 234 229 219 209 202 192 187 187 186 183 179 175 174 172 170 169 167 166 166 165 165 166 166 166 169 171 172 175 176 178 180 180 180 178 176 175 175
218 211 168 59 273 268 249 254 269 286 293 293 291 289 284 278 276 278 279 280 279 277 277 278 279 279 278 274 271 270 267 265 263 263 262 260 257 254 252 249 244 240 239 239 238 236 233 227 221 217 211 201 193 187 180 177 176 178 178 173 170 171 169 167 167 165 165 166 165 165 166 166 165 167 168 171 172 173 175 177 177 176 175 172 171 170
244 243 232 208 232 267 257 229 225 254 275 282 287 290 284 278 277 276 276 277 277 275 276 278 277 276 276 276 277 279 278 277 275 272 268 263 257 252 248 246 243 239 234 230 227 226 222 215 208 202 199 195 188 182 178 174 172 176 177 172 169 169 167 166 167 166 166 166 165 165 166 167 167 167 167 169 169 169 171 172 172 173 173 172 173 172
302 319 296 241 223 232 246 253 243 244 257 267 271 276 279 281 283 284 283 281 276 271 271 274 276 277 276 274 273 273 272 273 274 274 271 264 255 247 242 239 237 233 225 219 216 215 211 206 201 196 194 192 186 181 179 174 171 173 174 170 168 167 166 167 168 167 166 166 165 165 166 168 170 169 168 168 168 168 169 168 168 170 170 170 171 170
278 302 295 276 280 269 261 277 279 266 262 263 263 266 273 279 285 291 292 285 275 269 270 273 275 277 278 278 277 272 268 267 267 267 265 259 250 242 237 233 229 224 217 210 207 204 201 198 195 193 192 189 184 180 177 172 169 170 170 170 169 168 168 167 166 166 167 166 166 167 166 168 171 171 169 168 167 166 166 165 165 166 165 164 164 163
253 265 267 278 296 291 284 295 294 282 273 274 275 279 284 286 289 291 290 286 280 278 278 277 278 279 278 276 273 269 265 265 263 261 258 254 247 241 235 229 223 216 210 205 201 197 193 191 192 192 190 186 181 177 173 169 167 167 169 170 168 167 168 167 166 166 167 166 167 167 166 165 166 167 168 168 166 165 164 162 162 163 162 161 161 160
241 246 253 258 264 265 272 279 279 275 275 282 286 290 291 291 290 287 285 286 285 285 285 283 280 280 278 274 270 265 262 261 260 256 250 243 237 233 229 225 220 214 208 203 199 193 188 187 190 191 188 182 177 171 168 167 166 165 166 166 164 164 167 166 165 164 164 163 164 164 163 163 163 164 166 167 166 165 163 161 160 160 161 161 162 161
Height
1552 1553 1552 1550 1549 1548 1549 1549 1551 1553 1552 1553 1556 1558 1560 1559 1556 1557 1560 1563 1565 1561 1554 1552 1551 1546 1544 1542 1539 1538 1538 1536 1535 1533 1531 1530 1530 1528 1527 1526 1525 1524 1525 1527 1529 1530 1531 1531 1532 1532 1533 1534 1534 1535 1536 1537 1538 1539 1540 1541 1542 1543 1544 1545 1546 1547 1548 1549 1549 1549 1551 1551 1552 1554 1556 1558 1559 1561 1562 1564 1565 1566 1568 1569 1570 1571
1553 1553 1549 1547 1548 1549 1551 1553 1553 1555 1555 1555 1557 1558 1561 1561 1557 1557 1562 1563 1565 1563 1553 1551 1552 1545 1541 1539 1535 1535 1534 1530 1529 1528 1527 1525 1525 1524 1522 1521 1520 1520 1522 1523 1524 1524 1526 1526 1527 1528 1529 1529 1530 1531 1532 1533 1534 1535 1537 1538 1538 1539 1540 1541 1542 1543 1544 1545 1546 1547 1548 1549 1549 1551 1553 1555 1556 1558 1559 1561 1562 1563 1565 1567 1568 1569
1554 1551 1547 1548 1551 1552 1554 1556 1554 1555 1557 1557 1559 1561 1559 1558 1557 1558 1563 1564 1564 1563 1553 1553 1555 1543 1536 1535 1531 1530 1529 1524 1523 1523 1522 1522 1521 1519 1516 1515 1516 1517 1517 1518 1519 1519 1520 1521 1522 1523 1524 1525 1526 1527 1528 1529 1530 1531 1533 1534 1535 1536 1537 1537 1538 1539 1541 1542 1543 1544 1545 1546 1547 1549 1550 1552 1553 1555 1556 1558 1559 1560 1561 1563 1565 1566
1554 1549 1547 1550 1551 1552 1556 1558 1556 1556 1558 1558 1559 1560 1558 1559 1558 1555 1560 1565 1564 1563 1558 1558 1558 1545 1533 1529 1523 1521 1522 1519 1518 1518 1518 1518 1516 1512 1511 1511 1512 1512 1512 1512 1513 1514 1515 1516 1517 1518 1520 1521 1522 1523 1523 1525 1526 1527 1528 1530 1531 1532 1533 1534 1534 1536 1538 1539 1540 1541 1542 1544 1545 1547 1548 1550 1551 1552 1553 1555 1556 1557 1559 1560 1562 1563
1548 1549 1550 1552 1551 1551 1555 1559 1557 1556 1557 1559 1559 1557 1555 1557 1558 1556 1559 1563 1562 1563 1564 1561 1555 1540 1529 1527 1520 1516 1518 1517 1515 1516 1514 1512 1510 1507 1507 1507 1508 1508 1508 1508 1509 1510 1510 1511 1512 1513 1515 1516 1517 1518 1519 1521 1522 1523 1524 1525 1527 1528 1529 1530 1531 1533 1534 1535 1536 1537 1539 1540 1541 1543 1545 1546 1546 1548 1549 1551 1552 1554 1556 1558 1559 1560
1546 1550 1551 1552 1553 1553 1555 1557 1557 1555 1555 1558 1558 1555 1553 1554 1558 1560 1562 1563 1558 1559 1563 1563 1554 1536 1525 1526 1520 1514 1515 1513 1511 1513 1511 1507 1505 1505 1504 1503 1503 1504 1504 1504 1505 1506 1506 1506 1508 1509 1510 1511 1511 1513 1515 1517 1518 1519 1520 1521 1523 1524 1525 1527 1528 1529 1530 1531 1532 1533 1534 1535 1536 1537 1538 1540 1542 1543 1546 1548 1550 1552 1553 1555 1556 1558
1548 1551 1551 1551 1553 1555 1556 1555 1556 1555 1555 1557 1557 1556 1556 1556 1560 1562 1563 1562 1557 1556 1562 1565 1560 1546 1532 1521 1513 1512 1513 1508 1508 1509 1506 1503 1501 1501 1501 1499 1500 1500 1500 1500 1501 1502 1503 1503 1504 1505 1506 1507 1508 1510 1511 1512 1514 1515 1516 1517 1519 1520 1521 1523 1524 1525 1526 1527 1528 1529 1530 1532 1532 1533 1535 1537 1539 1542 1544 1546 1548 1550 1551 1552 1554 1555
1547 1551 1552 1551 1552 1555 1555 1553 1553 1553 1554 1556 1558 1559 1558 1558 1561 1562 1562 1562 1560 1559 1562 1563 1563 1559 1543 1521 1511 1513 1513 1508 1506 1505 1500 1498 1497 1496 1497 1497 1497 1497 1497 1497 1497 1498 1499 1499 1500 1501 1502 1504 1505 1506 1507 1508 1510 1511 1512 1514 1515 1516 1517 1518 1519 1521 1522 1523 1524 1526 1527 1528 1530 1531 1533 1535 1538 1540 1542 1544 1546 1547 1548 1549 1551 1552
1545 1548 1550 1550 1552 1552 1550 1551 1551 1552 1553 1557 1562 1562 1560 1561 1562 1562 1563 1563 1565 1564 1559 1559 1563 1558 1536 1515 1514 1518 1514 1509 1503 1498 1495 1492 1493 1494 1494 1495 1495 1495 1495 1495 1495 1495 1496 1496 1497 1498 1499 1500 1501 1503 1504 1505 1507 1508 1509 1510 1511 1512 1512 1514 1516 1517 1518 1520 1521 1522 1523 1525 1527 1528 1531 1533 1536 1538 1539 1541 1543 1544 1545 1546 1548 1549
1546 1547 1547 1547 1548 1548 1549 1554 1554 1552 1553 1558 1563 1562 1562 1565 1564 1565 1565 1562 1567 1565 1555 1555 1560 1553 1525 1502 1510 1519 1514 1507 1497 1491 1491 1489 1491 1492 1492 1493 1493 1493 1493 1493 1494 1494 1494 1495 1495 1496 1496 1498 1498 1500 1501 1502 1503 1504 1505 1506 1507 1508 1509 1510 1512 1514 1515 1516 1518 1519 1520 1521 1523 1525 1527 1530 1532 1534 1536 1538 1539 1540 1541 1543 1544 1545
1547 1547 1547 1547 1546 1546 1551 1556 1557 1556 1556 1558 1560 1559 1562 1565 1564 1566 1565 1563 1567 1560 1550 1550 1551 1552 1531 1499 1498 1508 1504 1499 1492 1489 1489 1488 1490 1491 1491 1493 1492 1492 1493 1493 1493 1493 1494 1494 1495 1496 1496 1497 1497 1498 1499 1499 1500 1501 1501 1502 1503 1504 1505 1506 1508 1510 1511 1513 1514 1515 1517 1518 1520 1522 1523 1525 1527 1530 1532 1533 1535 1537 1538 1540 1541 1542
1547 1548 1547 1546 1546 1547 1550 1555 1558 1559 1559 1558 1557 1557 1561 1563 1564 1567 1566 1569 1568 1555 1552 1555 1555 1557 1539 1503 1494 1498 1496 1496 1493 1490 1488 1488 1490 1491 1491 1492 1492 1493 1493 1492 1493 1493 1494 1495 1494 1496 1496 1496 1497 1496 1497 1497 1497 1498 1498 1499 1499 1500 1501 1502 1504 1507 1508 1509 1510 1512 1514 1516 1517 1519 1520 1522 1524 1526 1528 1529 1532 1534 1535 1537 1538 1539
1545 1544 1545 1546 1547 1547 1546 1551 1560 1562 1560 1558 1555 1556 1560 1561 1565 1566 1565 1570 1565 1555 1560 1565 1563 1557 1529 1499 1496 1497 1491 1492 1492 1491 1490 1489 1490 1490 1490 1492 1491 1493 1493 1493 1493 1493 1494 1495 1494 1495 1495 1495 1495 1495 1495 1495 1495 1495 1495 1496 1496 1497 1498 1499 1501 1503 1504 1506 1507 1509 1511 1512 1514 1516 1518 1520 1522 1524 1526 1528 1530 1531 1533 1534 1535 1537
1543 1542 1545 1546 1546 1545 1541 1544 1554 1558 1558 1555 1550 1552 1556 1561 1569 1567 1566 1571 1563 1556 1565 1569 1564 1549 1518 1495 1493 1491 1487 1488 1489 1490 1491 1490 1490 1488 1488 1489 1490 1491 1492 1492 1492 1493 1493 1494 1494 1494 1494 1494 1493 1493 1493 1493 1493 1494 1494 1494 1494 1495 1496 1496 1498 1500 1501 1502 1504 1506 1508 1509 1511 1513 1515 1517 1519 1522 1524 1525 1527 1529 1530 1532 1533 1535
1539 1536 1535 1537 1537 1538 1536 1534 1537 1541 1548 1549 1544 1546 1548 1548 1554 1554 1556 1558 1552 1554 1568 1573 1560 1535 1510 1495 1489 1487 1487 1487 1487 1487 1488 1488 1487 1487 1486 1485 1485 1487 1489 1490 1490 1491 1492 1492 1492 1492 1492 1492 1491 1491 1491 1491 1491 1492 1492 1492 1492 1493 1494 1494 1495 1496 1498 1499 1500 1502 1504 1506 1507 1510 1512 1515 1517 1519 1521 1523 1524 1526 1528 1530 1532 1533
1536 1528 1525 1530 1530 1530 1532 1530 1531 1536 1545 1549 1547 1548 1546 1537 1536 1547 1557 1555 1554 1559 1562 1563 1548 1516 1499 1492 1485 1488 1488 1484 1485 1484 1485 1485 1483 1485 1485 1482 1481 1483 1485 1486 1487 1488 1489 1490 1490 1490 1490 1490 1490 1490 1489 1489 1490 1490 1491 1491 1491 1492 1492 1492 1493 1494 1495 1496 1498 1499 1500 1502 1504 1507 1509 1511 1513 1516 1518 1520 1521 1523 1525 1527 1528 1530
1532 1528 1528 1532 1530 1531 1532 1531 1533 1535 1539 1547 1549 1546 1542 1536 1534 1547 1562 1566 1567 1559 1544 1542 1533 1507 1497 1490 1480 1484 1485 1481 1484 1482 1482 1482 1479 1481 1481 1478 1479 1480 1482 1483 1484 1485 1486 1487 1488 1488 1488 1488 1488 1488 1488 1488 1489 1489 1489 1490 1490 1490 1490 1490 1490 1492 1493 1494 1495 1496 1497 1499 1501 1504 1506 1508 1510 1513 1515 1517 1518 1520 1522 1523 1525 1526
1521 1525 1530 1533 1532 1533 1534 1533 1535 1535 1534 1542 1545 1538 1536 1541 1540 1541 1551 1558 1562 1555 1537 1532 1526 1511 1505 1494 1479 1481 1485 1482 1482 1480 1479 1478 1477 1478 1476 1474 1477 1479 1481 1481 1481 1483 1484 1484 1486 1485 1486 1486 1486 1487 1487 1487 1487 1487 1488 1488 1488 1489 1488 1488 1489 1489 1491 1491 1492 1493 1494 1496 1499 1501 1504 1506 1508 1511 1512 1514 1515 1517 1519 1520 1522 1523
1517 1521 1529 1536 1535 1533 1535 1535 1536 1536 1536 1537 1537 1535 1536 1542 1542 1542 1546 1547 1548 1550 1538 1527 1522 1515 1506 1492 1480 1481 1483 1480 1478 1477 1477 1476 1476 1476 1473 1472 1474 1476 1479 1479 1479 1481 1482 1483 1484 1483 1484 1485 1485 1486 1486 1486 1486 1486 1486 1486 1487 1487 1487 1487 1487 1487 1488 1488 1488 1490 1491 1494 1496 1499 1501 1503 1506 1508 1509 1511 1513 1515 1516 1518 1519 1520
1517 1519 1525 1535 1536 1534 1536 1534 1531 1533 1537 1539 1536 1536 1538 1537 1535 1536 1539 1536 1534 1538 1534 1523 1516 1504 1489 1481 1479 1478 1476 1475 1475 1475 1475 1476 1475 1473 1472 1472 1473 1473 1475 1476 1477 1479 1480 1481 1481 1481 1482 1483 1484 1485 1484 1485 1485 1485 1485 1485 1485 1485 1485 1484 1484 1484 1485 1485 1486 1487 1489 1491 1493 1496 1498 1501 1503 1504 1506 1508 1510 1512 1513 1515 1516 1518
1518 1518 1520 1532 1538 1534 1530 1525 1520 1521 1528 1534 1534 1535 1537 1536 1537 1536 1534 1532 1530 1531 1532 1530 1519 1493 1473 1473 1476 1474 1472 1472 1473 1474 1475 1474 1472 1471 1471 1472 1472 1471 1471 1473 1475 1477 1478 1479 1479 1479 1481 1481 1482 1483 1483 1483 1483 1483 1483 1483 1483 1483 1482 1482 1482 1482 1483 1483 1483 1484 1486 1488 1490 1493 1495 1497 1499 1500 1503 1505 1506 1508 1510 1512 1514 1515
1514 1515 1517 1529 1534 1527 1519 1516 1516 1515 1516 1520 1521 1522 1523 1525 1532 1536 1534 1535 1536 1531 1528 1531 1522 1490 1468 1471 1472 1471 1472 1472 1472 1474 1473 1472 1471 1470 1471 1471 1471 1470 1469 1471 1473 1475 1476 1477 1477 1478 1479 1480 1481 1481 1481 1481 1481 1481 1481 1481 1481 1481 1480 1480 1480 1480 1481 1481 1481 1482 1484 1486 1488 1490 1491 1493 1494 1496 1498 1500 1502 1505 1507 1508 1510 1512
1507 1511 1514 1520 1521 1517 1516 1519 1521 1519 1516 1517 1516 1515 1514 1515 1521 1524 1526 1531 1536 1534 1528 1531 1526 1492 1467 1471 1473 1470 1473 1473 1472 1474 1472 1471 1470 1470 1471 1470 1469 1470 1469 1470 1471 1473 1474 1475 1476 1477 1477 1479 1479 1478 1479 1479 1479 1480 1479 1479 1479 1478 1478 1478 1478 1478 1478 1479 1479 1480 1482 1484 1485 1487 1488 1489 1491 1492 1495 1497 1499 1501 1503 1505 1507 1508
1507 1512 1513 1513 1512 1515 1518 1520 1521 1520 1520 1519 1516 1516 1516 1515 1513 1515 1519 1522 1525 1526 1524 1530 1528 1495 1468 1472 1475 1472 1475 1474 1472 1473 1472 1470 1468 1469 1470 1468 1468 1470 1469 1469 1470 1471 1473 1473 1474 1476 1476 1477 1477 1477 1477 1477 1477 1478 1477 1477 1476 1476 1476 1476 1476 1476 1476 1476 1477 1478 1480 1481 1482 1484 1484 1486 1488 1489 1492 1494 1496 1498 1500 1502 1504 1505
1507 1509 1510 1513 1515 1517 1520 1520 1519 1520 1521 1516 1512 1514 1515 1513 1515 1519 1523 1523 1522 1517 1512 1516 1513 1487 1469 1474 1475 1474 1475 1473 1471 1472 1471 1470 1468 1468 1469 1467 1467 1469 1469 1470 1470 1469 1471 1472 1472 1473 1474 1474 1474 1474 1474 1474 1475 1475 1475 1474 1474 1473 1473 1473 1473 1473 1473 1474 1474 1475 1476 1477 1479 1480 1481 1483 1485 1487 1489 1491 1493 1495 1497 1499 1501 1502
1503 1505 1506 1511 1514 1512 1510 1509 1507 1508 1515 1516 1512 1511 1511 1511 1515 1517 1519 1524 1521 1510 1505 1505 1498 1478 1468 1472 1473 1472 1474 1472 1471 1471 1470 1469 1468 1467 1468 1467 1466 1466 1468 1469 1469 1468 1470 1470 1470 1471 1471 1472 1471 1470 1471 1472 1473 1473 1472 1472 1471 1470 1470 1470 1470 1470 1470 1471 1471 1472 1473 1474 1475 1477 1478 1480 1482 1484 1487 1488 1490 1492 1495 1497 1498 1500
1501 1504 1503 1504 1503 1498 1493 1492 1494 1498 1506 1511 1507 1507 1510 1510 1511 1512 1514 1515 1510 1504 1500 1495 1490 1480 1469 1467 1470 1471 1472 1472 1470 1469 1470 1469 1467 1467 1467 1467 1465 1465 1467 1468 1467 1467 1468 1468 1469 1469 1469 1469 1467 1466 1468 1469 1470 1470 1470 1469 1468 1468 1467 1467 1467 1467 1467 1468 1468 1468 1469 1470 1472 1474 1476 1477 1479 1482 1484 1485 1488 1490 1492 1494 1495 1497
1501 1504 1502 1500 1497 1491 1485 1487 1493 1495 1497 1499 1500 1502 1507 1509 1510 1513 1510 1502 1498 1502 1496 1483 1484 1485 1470 1460 1465 1468 1468 1470 1470 1468 1468 1467 1466 1466 1466 1466 1466 1466 1466 1466 1466 1465 1465 1466 1467 1467 1467 1466 1464 1463 1465 1466 1467 1467 1467 1466 1465 1465 1464 1464 1464 1463 1464 1464 1464 1465 1465 1467 1469 1471 1473 1475 1477 1479 1480 1482 1485 1487 1489 1491 1492 1494
1497 1499 1497 1497 1495 1490 1485 1486 1492 1493 1491 1492 1493 1495 1500 1504 1507 1509 1504 1494 1491 1495 1490 1476 1477 1478 1464 1456 1461 1464 1465 1467 1467 1467 1467 1466 1466 1465 1465 1466 1465 1466 1466 1465 1463 1463 1462 1463 1464 1463 1463 1461 1460 1460 1462 1463 1463 1463 1463 1463 1462 1462 1461 1461 1461 1460 1460 1460 1461 1461 1463 1464 1466 1468 1470 1472 1474 1475 1477 1479 1481 1484 1486 1488 1489 1491
1492 1491 1490 1493 1494 1490 1486 1486 1489 1491 1491 1491 1491 1492 1493 1497 1499 1497 1493 1487 1484 1485 1482 1475 1472 1468 1458 1454 1456 1459 1462 1463 1464 1465 1466 1465 1465 1464 1464 1464 1463 1463 1463 1461 1460 1460 1461 1461 1460 1459 1458 1457 1457 1458 1459 1459 1459 1459 1459 1459 1458 1458 1458 1457 1457 1457 1456 1457 1457 1458 1460 1461 1463 1464 1466 1468 1470 1472 1474 1476 1478 1480 1483 1485 1487 1489
1492 1489 1487 1492 1496 1492 1486 1483 1485 1488 1489 1489 1490 1491 1491 1491 1491 1488 1484 1481 1483 1484 1479 1476 1475 1465 1452 1451 1455 1456 1459 1461 1461 1462 1463 1462 1463 1462 1461 1460 1459 1459 1458 1456 1456 1457 1458 1457 1456 1454 1454 1454 1455 1456 1456 1455 1455 1454 1454 1455 1454 1454 1454 1453 1453 1453 1453 1453 1454 1455 1457 1458 1459 1461 1462 1464 1467 1469 1471 1473 1475 1478 1480 1482 1484 1486
1492 1490 1487 1492 1497 1491 1482 1480 1483 1486 1490 1492 1491 1488 1486 1484 1482 1481 1479 1478 1478 1478 1477 1481 1480 1462 1446 1449 1454 1453 1455 1457 1457 1458 1459 1458 1458 1458 1456 1455 1455 1455 1454 1453 1454 1454 1453 1452 1451 1450 1451 1452 1452 1452 1453 1452 1451 1450 1450 1450 1450 1450 1450 1450 1450 1449 1450 1450 1450 1452 1453 1454 1456 1458 1459 1461 1463 1466 1468 1470 1473 1474 1477 1479 1481 1483
1486 1486 1485 1489 1492 1485 1475 1476 1483 1489 1495 1493 1483 1474 1470 1470 1472 1475 1477 1473 1469 1471 1474 1474 1468 1453 1443 1448 1451 1449 1451 1454 1453 1454 1454 1453 1453 1452 1451 1450 1451 1451 1450 1450 1449 1448 1447 1447 1447 1447 1448 1448 1448 1448 1449 1448 1447 1446 1446 1446 1446 1446 1445 1446 1446 1446 1446 1446 1447 1448 1450 1451 1453 1455 1457 1459 1461 1463 1466 1468 1470 1471 1474 1476 1478 1479
1481 1482 1481 1483 1487 1481 1473 1477 1485 1489 1487 1474 1460 1455 1458 1462 1467 1469 1467 1463 1461 1464 1466 1461 1455 1448 1444 1444 1445 1446 1448 1449 1448 1448 1447 1447 1448 1447 1446 1446 1446 1446 1445 1443 1442 1442 1442 1442 1443 1444 1444 1444 1444 1444 1444 1443 1442 1443 1442 1442 1441 1441 1441 1441 1441 1442 1442 1442 1443 1445 1446 1448 1450 1452 1454 1456 1458 1460 1462 1464 1467 1469 1471 1473 1474 1476
1481 1481 1478 1479 1484 1480 1475 1481 1485 1477 1468 1457 1449 1449 1453 1456 1459 1457 1453 1451 1454 1458 1460 1459 1454 1446 1440 1438 1440 1441 1443 1444 1444 1442 1441 1442 1443 1442 1441 1440 1439 1439 1438 1436 1437 1437 1438 1439 1439 1439 1440 1440 1439 1439 1438 1438 1438 1438 1438 1437 1437 1436 1436 1437 1437 1437 1438 1438 1439 1441 1443 1445 1447 1449 1451 1454 1456 1458 1460 1462 1464 1466 1468 1470 1471 1473
1480 1481 1479 1479 1481 1478 1477 1479 1473 1459 1453 1454 1450 1448 1451 1451 1451 1453 1451 1446 1446 1451 1454 1453 1447 1439 1435 1434 1434 1437 1440 1442 1440 1436 1434 1436 1438 1436 1434 1432 1431 1433 1432 1431 1432 1433 1433 1435 1435 1434 1435 1434 1434 1434 1433 1433 1433 1433 1432 1432 1432 1432 1432 1432 1433 1433 1434 1435 1436 1438 1440 1441 1444 1446 1449 1451 1453 1455 1457 1460 1462 1464 1466 1467 1469 1471
1473 1476 1479 1480 1477 1474 1472 1468 1460 1454 1454 1453 1447 1441 1442 1442 1442 1447 1449 1441 1437 1442 1445 1442 1437 1433 1431 1430 1431 1436 1440 1442 1439 1429 1423 1428 1430 1427 1425 1424 1425 1427 1427 1427 1427 1427 1428 1429 1429 1429 1430 1429 1429 1429 1428 1428 1428 1427 1427 1427 1427 1427 1428 1428 1429 1429 1430 1431 1433 1435 1437 1439 1441 1444 1446 1449 1451 1454 1456 1458 1460 1461 1463 1465 1467 1468
1465 1467 1472 1475 1471 1469 1469 1463 1459 1458 1454 1446 1436 1430 1432 1435 1435 1440 1444 1439 1432 1431 1432 1433 1431 1428 1426 1428 1431 1436 1439 1443 1439 1422 1412 1418 1421 1418 1419 1420 1420 1421 1422 1422 1422 1421 1422 1423 1423 1424 1424 1424 1424 1424 1424 1424 1424 1423 1423 1423 1423 1424 1424 1424 1425 1426 1427 1429 1430 1432 1434 1437 1439 1441 1444 1446 1449 1452 1454 1456 1458 1459 1461 1463 1464 1465
1461 1462 1466 1469 1466 1465 1466 1461 1455 1450 1443 1435 1429 1425 1429 1433 1433 1438 1446 1442 1428 1419 1421 1427 1427 1425 1425 1427 1430 1434 1438 1442 1434 1416 1407 1412 1415 1413 1415 1416 1415 1416 1417 1416 1416 1417 1417 1418 1419 1419 1419 1420 1420 1420 1420 1420 1420 1419 1419 1419 1420 1420 1421 1421 1422 1423 1425 1427 1428 1430 1432 1435 1437 1439 1442 1444 1447 1450 1452 1454 1456 1457 1459 1461 1462 1464
1458 1459 1461 1462 1460 1459 1459 1453 1446 1439 1433 1428 1425 1424 1427 1429 1431 1441 1448 1437 1418 1410 1416 1422 1422 1421 1423 1424 1427 1431 1432 1430 1422 1410 1406 1409 1410 1410 1412 1412 1412 1413 1412 1412 1413 1413 1413 1414 1415 1415 1416 1416 1416 1416 1416 1416 1416 1416 1416 1416 1417 1417 1418 1419 1420 1421 1423 1425 1426 1428 1430 1433 1435 1437 1440 1442 1445 1448 1450 1452 1454 1455 1457 1459 1460 1462
1452 1454 1454 1453 1453 1454 1453 1448 1439 1432 1427 1424 1422 1422 1425 1427 1431 1436 1431 1419 1410 1410 1413 1414 1415 1416 1417 1418 1421 1422 1419 1415 1412 1407 1406 1407 1407 1408 1409 1409 1410 1410 1409 1410 1410 1410 1410 1411 1411 1412 1412 1412 1413 1413 1413 1413 1413 1413 1413 1413 1414 1415 1416 1417 1418 1419 1421 1423 1424 1427 1429 1431 1434 1436 1438 1441 1443 1446 1448 1450 1452 1454 1455 1457 1459 1460
1447 1447 1446 1446 1446 1447 1445 1443 1438 1429 1422 1420 1420 1421 1423 1425 1424 1419 1411 1407 1409 1409 1408 1408 1409 1411 1411 1412 1413 1412 1409 1407 1407 1406 1404 1404 1404 1405 1406 1407 1407 1407 1407 1407 1407 1407 1408 1408 1409 1409 1409 1409 1409 1409 1409 1410 1410 1411 1411 1412 1413 1413 1414 1415 1417 1418 1420 1421 1423 1425 1428 1430 1432 1435 1437 1440 1442 1444 1446 1448 1451 1452 1454 1456 1457 1458
1442 1441 1439 1437 1438 1439 1439 1440 1437 1429 1418 1415 1417 1420 1420 1416 1411 1407 1406 1406 1407 1407 1407 1407 1407 1407 1408 1407 1407 1406 1405 1404 1404 1403 1402 1401 1401 1402 1403 1404 1405 1405 1405 1405 1405 1405 1406 1406 1406 1406 1406 1406 1407 1407 1407 1408 1408 1409 1410 1411 1411 1412 1413 1415 1416 1417 1419 1421 1423 1425 1427 1429 1432 1434 1436 1439 1441 1443 1445 1447 1449 1451 1453 1454 1456 1457
1439 1438 1433 1429 1429 1431 1431 1428 1425 1422 1418 1417 1417 1416 1414 1411 1408 1408 1408 1408 1407 1407 1407 1406 1405 1406 1406 1405 1404 1403 1402 1401 1400 1399 1399 1399 1399 1400 1400 1401 1402 1402 1403 1403 1403 1403 1403 1403 1403 1403 1403 1404 1405 1405 1406 1406 1407 1408 1409 1410 1411 1412 1413 1414 1416 1417 1419 1420 1422 1425 1427 1429 1431 1434 1436 1438 1440 1442 1445 1447 1448 1450 1451 1453 1455 1456
1430 1429 1428 1426 1423 1422 1421 1418 1418 1418 1419 1418 1418 1415 1414 1413 1412 1411 1410 1408 1408 1407 1406 1404 1404 1404 1404 1403 1402 1401 1400 1398 1397 1397 1397 1397 1397 1397 1398 1399 1399 1400 1400 1401 1401 1400 1400 1400 1401 1401 1402 1402 1403 1404 1405 1406 1407 1408 1409 1410 1411 1412 1413 1414 1416 1417 1419 1421 1423 1425 1427 1429 1431 1434 1436 1438 1440 1442 1444 1446 1447 1449 1451 1452 1453 1455
1423 1423 1426 1428 1424 1420 1417 1416 1416 1416 1415 1414 1415 1415 1414 1412 1411 1409 1409 1409 1407 1406 1405 1404 1403 1402 1402 1401 1400 1399 1398 1397 1396 1396 1395 1395 1395 1395 1396 1396 1396 1397 1397 1397 1398 1398 1398 1398 1399 1399 1400 1401 1402 1403 1404 1406 1407 1409 1409 1410 1411 1412 1414 1415 1416 1417 1419 1421 1423 1425 1427 1429 1431 1433 1435 1437 1439 1441 1443 1445 1447 1449 1450 1452 1453 1455
1422 1423 1425 1425 1424 1421 1418 1413 1412 1413 1413 1411 1411 1411 1410 1409 1408 1407 1407 1407 1406 1405 1404 1402 1401 1400 1400 1399 1398 1398 1397 1396 1395 1395 1394 1393 1393 1393 1393 1394 1394 1394 1395 1395 1395 1396 1396 1397 1397 1398 1399 1400 1401 1402 1404 1405 1407 1409 1410 1411 1412 1413 1414 1416 1417 1419 1420 1421 1423 1425 1427 1429 1431 1433 1435 1437 1439 1441 1443 1445 1447 1449 1450 1452 1453 1454
1424 1425 1424 1421 1418 1416 1413 1409 1408 1410 1410 1409 1409 1408 1407 1406 1406 1405 1405 1405 1404 1403 1401 1399 1399 1398 1397 1396 1397 1396 1395 1394 1393 1392 1392 1391 1391 1391 1392 1392 1392 1392 1392 1393 1393 1394 1395 1396 1396 1397 1399 1400 1401 1402 1404 1405 1407 1409 1411 1412 1413 1414 1415 1416 1418 1419 1421 1422 1424 1426 1428 1430 1432 1433 1435 1437 1439 1441 1443 1445 1447 1449 1450 1452 1453 1454
1427 1427 1426 1422 1418 1414 1409 1406 1407 1408 1408 1407 1407 1406 1405 1405 1405 1405 1404 1403 1401 1400 1399 1398 1397 1396 1395 1394 1394 1393 1392 1391 1390 1390 1389 1389 1390 1390 1390 1391 1391 1391 1391 1391 1392 1393 1394 1395 1396 1397 1399 1400 1401 1402 1404 1405 1407 1409 1411 1412 1413 1414 1416 1417 1418 1420 1422 1423 1425 1426 1428 1430 1432 1434 1436 1438 1440 1442 1444 1446 1447 1449 1450 1452 1453 1454
1425 1425 1423 1422 1421 1417 1411 1408 1408 1409 1408 1405 1404 1404 1404 1404 1404 1403 1401 1400 1399 1398 1397 1396 1395 1394 1393 1392 1391 1390 1389 1388 1387 1387 1386 1387 1388 1389 1390 1390 1389 1389 1390 1391 1392 1393 1394 1395 1397 1398 1399 1400 1401 1402 1404 1406 1407 1409 1411 1412 1414 1415 1416 1417 1418 1420 1422 1423 1425 1427 1429 1430 1433 1435 1437 1438 1440 1441 1443 1445 1446 1448 1450 1451 1452 1454
1420 1419 1419 1420 1418 1414 1410 1408 1408 1409 1407 1403 1401 1401 1401 1401 1401 1400 1398 1396 1395 1394 1394 1393 1392 1390 1389 1388 1388 1386 1385 1384 1384 1384 1384 1384 1386 1387 1388 1388 1388 1389 1390 1390 1391 1393 1394 1396 1397 1399 1400 1400 1401 1403 1405 1406 1408 1409 1411 1413 1415 1416 1418 1418 1419 1420 1422 1424 1426 1427 1429 1431 1433 1435 1437 1439 1440 1442 1443 1444 1445 1447 1449 1451 1452 1453